DW6455 Weather Reports


Display with metric or nautical units.
time (UTC)temp
F
wind
direction
speed
MPH
gust
MPH
rain 1hr
in
rain 24hr
in
rain mn
in
humidity
%
barometer
mb
20260508173530 55 45 1.0 4.0 0.00 0.00 0.00 26 1026.1
20260508172531 55 45 2.0 7.0 0.00 0.00 0.00 25 1026.0
20260508171531 55 0 2.0 6.0 0.00 0.00 0.00 26 1026.0
20260508170611 55 0 1.0 6.0 0.00 0.00 0.00 26 1025.8
20260508165530 56 45 1.0 3.0 0.00 0.00 0.00 27 1025.8
20260508164530 57 23 1.0 5.0 0.00 0.00 0.00 25 1025.7
20260508163530 57 0 3.0 7.0 0.00 0.00 0.00 25 1025.6
20260508162530 58 23 5.0 11.0 0.00 0.00 0.00 25 1025.6
20260508161530 57 45 3.0 6.0 0.00 0.00 0.00 25 1025.6
20260508160530 57 45 4.0 10.0 0.00 0.00 0.00 25 1025.4
20260508155550 57 0 2.0 6.0 0.00 0.00 0.00 25 1025.5
20260508154530 57 23 5.0 10.0 0.00 0.00 0.00 25 1025.5
20260508153530 57 0 1.0 4.0 0.00 0.00 0.00 25 1025.5
20260508152530 57 315 3.0 6.0 0.00 0.00 0.00 26 1025.4
20260508151531 57 45 1.0 3.0 0.00 0.00 0.00 26 1025.3
20260508150530 57 293 1.0 7.0 0.00 0.00 0.00 26 1025.3
20260508145530 57 338 2.0 6.0 0.00 0.00 0.00 27 1025.3
20260508144530 57 45 1.0 4.0 0.00 0.00 0.00 26 1025.2
20260508143531 57 338 3.0 8.0 0.00 0.00 0.00 26 1025.2
20260508142610 57 338 2.0 6.0 0.00 0.00 0.00 26 1025.3
20260508141530 57 23 2.0 7.0 0.00 0.00 0.00 26 1025.3
20260508140530 57 293 2.0 9.0 0.00 0.00 0.00 27 1025.4
20260508135530 57 0 3.0 7.0 0.00 0.00 0.00 28 1025.4
20260508134530 57 23 5.0 9.0 0.00 0.00 0.00 25 1025.4
20260508133530 57 0 6.0 11.0 0.00 0.00 0.00 25 1025.5
20260508132530 57 338 3.0 6.0 0.00 0.00 0.00 25 1025.6
20260508131530 57 23 4.0 11.0 0.00 0.00 0.00 27 1025.7
20260508130530 57 45 1.0 3.0 0.00 0.00 0.00 28 1025.7
20260508125530 57 23 4.0 9.0 0.00 0.00 0.00 27 1025.7
20260508124531 56 0 3.0 9.0 0.00 0.00 0.00 29 1025.7
20260508123530 57 338 3.0 9.0 0.00 0.00 0.00 30 1025.7
20260508122530 56 293 2.0 7.0 0.00 0.00 0.00 31 1025.7
20260508121530 56 338 4.0 10.0 0.00 0.00 0.00 30 1025.8
20260508120530 57 338 3.0 7.0 0.00 0.00 0.00 28 1025.8
20260508115531 56 293 3.0 12.0 0.00 0.00 0.00 31 1025.8
20260508114531 56 338 4.0 10.0 0.00 0.00 0.00 31 1025.8
20260508113530 56 23 3.0 8.0 0.00 0.00 0.00 30 1025.8
20260508112530 55 315 4.0 10.0 0.00 0.00 0.00 30 1025.8
20260508111532 56 338 6.0 10.0 0.00 0.00 0.00 31 1025.9
20260508110532 55 0 3.0 8.0 0.00 0.00 0.00 32 1025.8
20260508105532 56 338 7.0 12.0 0.00 0.00 0.00 33 1025.8
20260508104531 55 0 5.0 12.0 0.00 0.00 0.00 32 1025.8
20260508103531 55 0 7.0 11.0 0.00 0.00 0.00 33 1025.8
20260508102530 55 338 7.0 12.0 0.00 0.00 0.00 33 1025.7
20260508101550 55 0 6.0 13.0 0.00 0.00 0.00 34 1025.7
20260508100531 54 0 4.0 13.0 0.00 0.00 0.00 34 1025.6
20260508095531 54 68 4.0 9.0 0.00 0.00 0.00 34 1025.6
20260508094530 53 293 3.0 10.0 0.00 0.00 0.00 38 1025.8
20260508093531 53 45 3.0 9.0 0.00 0.00 0.00 37 1025.6
20260508092611 54 0 5.0 12.0 0.00 0.00 0.00 35 1025.7
20260508091551 54 338 6.0 14.0 0.00 0.00 0.00 38 1025.7
20260508090530 54 315 8.0 12.0 0.00 0.00 0.00 38 1025.8
20260508085530 53 0 5.0 11.0 0.00 0.00 0.00 34 1025.7
20260508084530 53 338 6.0 12.0 0.00 0.00 0.00 40 1025.8
20260508083530 53 315 5.0 11.0 0.00 0.00 0.00 37 1025.7
20260508082530 53 0 8.0 17.0 0.00 0.00 0.00 36 1025.7
20260508081530 53 338 7.0 15.0 0.00 0.00 0.00 36 1025.6
20260508080532 53 0 7.0 17.0 0.00 0.00 0.00 37 1025.6
20260508075533 52 315 4.0 11.0 0.00 0.00 0.00 42 1025.5
20260508074531 52 338 5.0 14.0 0.00 0.00 0.00 42 1025.4
20260508073531 51 338 3.0 9.0 0.00 0.00 0.00 46 1025.4
20260508072531 51 338 6.0 13.0 0.00 0.00 0.00 47 1025.4
20260508071610 50 338 4.0 11.0 0.00 0.00 0.00 49 1025.3
20260508070530 50 338 5.0 11.0 0.00 0.00 0.00 50 1025.2
20260508065530 50 293 3.0 15.0 0.00 0.00 0.00 51 1025.1
20260508064530 49 293 2.0 7.0 0.00 0.00 0.00 52 1025.1
20260508063530 49 293 4.0 9.0 0.00 0.00 0.00 54 1025.0
20260508062531 48 0 2.0 8.0 0.00 0.00 0.00 56 1025.0
20260508061530 48 315 3.0 10.0 0.00 0.00 0.00 57 1024.9
20260508060531 47 338 3.0 8.0 0.00 0.00 0.00 59 1024.8
20260508055530 47 338 5.0 11.0 0.00 0.00 0.00 58 1024.7
20260508054530 47 338 4.0 12.0 0.00 0.00 0.00 59 1024.6
20260508053530 48 23 4.0 9.0 0.00 0.00 0.00 58 1024.6
20260508052550 48 45 3.0 5.0 0.00 0.00 0.00 59 1024.5
20260508051530 46 338 1.0 6.0 0.00 0.00 0.00 63 1024.3
20260508050530 43 338 1.0 4.0 0.00 0.00 0.00 68 1024.2
20260508045531 41 338 1.0 4.0 0.00 0.00 0.00 72 1024.1
20260508044531 40 338 1.0 5.0 0.00 0.00 0.00 74 1024.1
20260508043532 39 338 2.0 4.0 0.00 0.00 0.00 76 1024.0
20260508042531 38 338 1.0 4.0 0.00 0.00 0.00 77 1023.9
20260508041531 37 338 2.0 5.0 0.00 0.00 0.00 78 1023.8
20260508040532 36 338 1.0 5.0 0.00 0.00 0.00 78 1023.7
20260508035530 35 0.0 0.0 0.00 0.00 0.00 76 1023.6
20260508034530 34 0.0 0.0 0.00 0.00 0.00 73 1023.5
20260508033550 32 0.0 0.0 0.00 0.00 0.00 71 1023.4
20260508032531 31 0.0 0.0 0.00 0.00 0.00 71 1023.2
20260508031530 30 0.0 0.0 0.00 0.00 0.00 72 1023.0
20260508030530 30 0.0 1.0 0.00 0.00 0.00 72 1023.1
20260508025530 30 0.0 0.0 0.00 0.00 0.00 70 1023.0
20260508024530 29 0.0 0.0 0.00 0.00 0.00 69 1022.8
20260508023530 28 0.0 0.0 0.00 0.00 0.00 70 1022.7
20260508022530 28 0.0 0.0 0.00 0.00 0.00 72 1022.5
20260508021530 28 0.0 0.0 0.00 0.00 0.00 74 1022.5
20260508020531 28 0.0 0.0 0.00 0.00 0.00 75 1022.4
20260508015531 28 0.0 0.0 0.00 0.00 0.00 76 1022.4
20260508014531 29 0.0 0.0 0.00 0.00 0.00 76 1022.2
20260508013533 29 0.0 0.0 0.00 0.00 0.00 76 1022.1
20260508012533 29 0.0 0.0 0.00 0.00 0.00 76 1022.1
20260508011530 29 0.0 0.0 0.00 0.00 0.00 77 1022.0
20260508010532 29 0.0 0.0 0.00 0.00 0.00 78 1021.9
20260508005532 29 0.0 0.0 0.00 0.00 0.00 79 1021.8
20260508004530 29 0.0 0.0 0.00 0.00 0.00 79 1021.6
20260508003531 30 0.0 0.0 0.00 0.00 0.00 79 1021.6
20260508002531 30 0.0 0.0 0.00 0.00 0.00 79 1021.5
20260508001530 30 0.0 1.0 0.00 0.00 0.00 79 1021.4
20260508000531 30 0.0 0.0 0.00 0.00 0.00 79 1021.3
20260507235551 31 0.0 0.0 0.00 0.00 0.00 79 1021.2
20260507234530 31 0.0 1.0 0.00 0.00 0.00 78 1021.1
20260507233531 31 0.0 0.0 0.00 0.00 0.00 78 1021.0
20260507232531 31 0.0 0.0 0.00 0.00 0.00 78 1021.0
20260507231531 31 0.0 0.0 0.00 0.00 0.00 77 1020.9
20260507230611 32 0.0 0.0 0.00 0.00 0.00 76 1020.8
20260507225531 32 0.0 0.0 0.00 0.00 0.00 75 1020.7
20260507224532 32 0.0 2.0 0.00 0.00 0.00 74 1020.6
20260507223531 33 0.0 0.0 0.00 0.00 0.00 74 1020.4
20260507222531 33 0.0 0.0 0.00 0.00 0.00 72 1020.2
20260507221530 34 0.0 3.0 0.00 0.00 0.00 71 1020.1
20260507220550 35 0.0 0.0 0.00 0.00 0.00 69 1020.1
20260507215531 35 0.0 1.0 0.00 0.00 0.00 69 1020.0
20260507214531 35 338 2.0 3.0 0.00 0.00 0.00 68 1019.9
20260507213551 35 338 2.0 4.0 0.00 0.00 0.00 67 1019.6
20260507212530 36 338 2.0 3.0 0.00 0.00 0.00 66 1019.5
20260507211531 37 338 3.0 4.0 0.00 0.00 0.00 64 1019.4
20260507210531 38 338 3.0 5.0 0.00 0.00 0.00 62 1019.3
20260507205530 39 338 3.0 5.0 0.00 0.00 0.00 61 1019.2
20260507204530 39 338 3.0 4.0 0.00 0.00 0.00 59 1019.0
20260507203531 40 338 3.0 5.0 0.00 0.00 0.00 58 1018.8
20260507202530 41 338 4.0 6.0 0.00 0.00 0.00 57 1018.6
20260507201530 40 338 5.0 9.0 0.00 0.00 0.00 58 1018.5
20260507200531 40 315 4.0 8.0 0.00 0.00 0.00 58 1018.2
20260507195532 41 338 4.0 8.0 0.00 0.00 0.00 57 1018.1
20260507194532 42 338 3.0 9.0 0.00 0.00 0.00 55 1017.9
20260507193532 43 315 3.0 5.0 0.00 0.00 0.00 53 1017.8
20260507192531 44 315 1.0 3.0 0.00 0.00 0.00 52 1017.7
20260507191530 44 315 2.0 4.0 0.00 0.00 0.00 51 1017.6
20260507190531 45 315 3.0 7.0 0.00 0.00 0.00 51 1017.5
20260507185531 45 315 3.0 8.0 0.00 0.00 0.00 50 1017.3
20260507184551 46 315 2.0 5.0 0.00 0.00 0.00 50 1017.2
20260507183531 47 315 2.0 5.0 0.00 0.00 0.00 48 1017.1
20260507182552 47 315 3.0 5.0 0.00 0.00 0.00 47 1017.0
20260507181531 48 293 5.0 10.0 0.00 0.00 0.00 45 1016.9
20260507180531 49 315 5.0 11.0 0.00 0.00 0.00 43 1016.8
20260507175531 49 293 5.0 12.0 0.00 0.00 0.00 41 1016.7
20260507174531 49 293 5.0 11.0 0.00 0.00 0.00 40 1016.6